Date,TemperatureHighF,TemperatureAvgF,TemperatureLowF,DewpointHighF,DewpointAvgF,DewpointLowF,HumidityHigh,HumidityAvg,HumidityLow,PressureMaxIn,PressureMinIn,WindSpeedMaxMPH,WindSpeedAvgMPH,GustSpeedMaxMPH,PrecipitationSumIn
2014-1-1,31.2,27.5,20.2,30.4,26.3,18.7,100,96,93,30.49,30.37,6,1,7,0.01
2014-1-2,31.7,30.5,29.2,30.8,29.5,28.2,97,96,95,30.37,29.82,6,1,7,0.00
2014-1-3,47.4,37.5,24.8,32.7,24.0,17.1,97,62,30,30.24,29.82,28,9,31,0.01
2014-1-4,43.2,30.7,21.3,25.5,19.0,14.6,80,63,41,30.44,30.24,14,3,14,0.00
2014-1-5,40.0,27.3,19.1,20.6,16.4,13.2,84,65,37,30.63,30.44,7,2,14,0.00
2014-1-6,35.5,28.3,21.7,20.9,17.6,15.1,77,65,48,30.52,30.21,10,2,10,0.00
2014-1-7,32.3,29.1,26.5,26.7,23.4,18.9,92,79,69,30.22,30.09,4,0,6,0.00
2014-1-8,29.6,26.1,18.1,27.7,24.1,15.6,94,92,88,30.10,29.76,6,1,7,0.00
2014-1-9,38.8,29.2,20.1,32.8,26.2,17.9,94,89,76,29.95,29.70,7,2,11,0.09
2014-1-10,51.6,40.3,28.1,37.1,32.0,25.8,93,73,53,29.91,29.68,12,3,15,0.00
2014-1-11,53.1,44.8,36.6,42.3,35.7,30.8,89,72,45,29.67,29.30,36,10,40,0.01
2014-1-12,47.7,39.8,31.6,37.8,32.0,26.6,85,74,61,30.08,29.52,19,5,26,0.00
2014-1-13,54.4,45.3,33.7,38.8,35.2,29.7,92,68,54,30.46,30.08,14,4,24,0.00
2014-1-14,49.7,41.2,31.2,37.5,33.8,27.0,91,76,61,30.58,30.43,15,3,18,0.00
2014-1-15,47.0,34.9,27.5,36.3,30.2,24.9,93,84,64,30.55,30.33,18,3,18,0.00
2014-1-16,42.9,31.0,25.0,35.1,27.7,22.7,95,88,73,30.58,30.42,6,2,7,0.01
2014-1-17,38.9,27.5,21.8,35.2,25.3,19.8,100,92,83,30.45,30.38,6,2,8,0.01
2014-1-18,29.3,27.0,22.3,27.5,25.3,20.3,95,93,90,30.44,30.27,6,1,8,0.00
2014-1-19,31.3,29.1,23.5,28.1,26.6,21.0,94,90,87,30.44,30.22,5,1,7,0.00
2014-1-20,30.6,28.9,22.6,28.2,26.6,20.3,94,91,89,30.58,30.43,9,3,10,0.00
2014-1-21,30.6,29.1,28.3,27.8,26.8,26.0,93,91,89,30.53,30.40,6,1,8,0.00
2014-1-22,31.1,29.3,28.2,27.6,26.9,26.4,94,91,86,30.56,30.37,5,0,6,0.00
2014-1-23,31.4,29.8,28.8,29.2,27.9,26.9,95,93,90,30.66,30.56,5,1,7,0.00
2014-1-24,31.0,29.4,28.3,28.7,27.5,26.6,95,93,90,30.69,30.60,5,1,7,0.00
2014-1-25,29.8,28.5,27.3,27.2,26.0,25.5,94,90,87,30.60,30.39,5,1,7,0.00
2014-1-26,29.6,28.2,26.9,26.4,25.6,24.8,94,90,87,30.39,30.30,10,1,10,0.01
2014-1-27,33.9,30.5,28.2,28.7,26.7,25.3,89,86,80,30.45,30.33,5,1,9,0.00
2014-1-28,31.9,30.4,29.4,28.9,27.6,26.5,93,90,88,30.43,30.11,5,0,6,0.00
2014-1-29,31.6,29.5,22.9,29.4,27.6,20.0,94,92,89,30.11,29.68,7,1,8,0.00
2014-1-30,33.6,27.3,19.9,30.4,25.0,17.4,95,91,84,29.94,29.77,11,2,11,0.06
2014-1-31,35.8,31.3,24.9,28.2,23.8,14.7,88,74,58,30.13,29.93,19,5,22,0.07